Location: Bessat
(45.8735°N, 1.9924°E)
Time: 23:04:39
(UTC+00:00)

Cosmos 2369 Rocket - Pass Details

Date: 11 May 2021
Orbit: 827 x 854 km, 71.0° (Epoch: 24 June)

Event Time Altitude Azimuth Distance (km) Brightness Sun altitude
Exits shadow 22:17:16 26° 94° (E) 1,599 3.4 -22.8°
Drops below altitude 10° 22:21:20 10° 48° (NE) 2,459 4.8 -23.0°
Sets 22:24:08 0° 36° (NE) 3,403 5.8 -23.2°
